Date,TemperatureHighF,TemperatureAvgF,TemperatureLowF,DewpointHighF,DewpointAvgF,DewpointLowF,HumidityHigh,HumidityAvg,HumidityLow,PressureMaxIn,PressureMinIn,WindSpeedMaxMPH,WindSpeedAvgMPH,GustSpeedMaxMPH,PrecipitationSumIn
2014-1-1,26.2,20.9,18.7,16.8,15.1,13.9,87,78,65,30.30,30.10,4,0,7,0.00
2014-1-2,21.7,17.9,11.8,17.1,12.7,4.3,85,80,73,30.10,29.84,14,3,21,0.00
2014-1-3,15.8,11.8,9.7,4.1,-0.3,-5.2,70,58,45,30.37,30.07,14,3,21,0.00
2014-1-4,34.5,24.5,11.8,14.1,3.9,-4.1,55,42,27,30.21,29.98,18,7,27,0.00
2014-1-5,43.3,35.8,31.8,42.4,23.8,13.5,99,63,42,30.06,29.28,11,2,18,0.25
2014-1-6,32.9,6.5,-12.6,32.1,-4.1,-30.3,99,63,39,30.12,29.33,14,4,22,0.01
2014-1-7,3.6,-3.7,-12.6,-11.5,-21.1,-28.7,50,42,32,30.32,30.11,14,3,21,0.00
2014-1-8,22.5,13.8,2.8,11.9,0.8,-11.6,71,56,42,30.45,30.31,11,2,15,0.00
2014-1-9,28.9,21.1,9.0,28.3,12.7,3.1,99,71,51,30.55,30.29,12,2,14,0.00
2014-1-10,45.3,36.5,28.6,43.8,35.6,28.3,99,97,91,30.29,29.75,19,6,24,0.09
2014-1-11,50.5,44.5,33.8,49.9,41.7,26.1,99,90,73,29.75,29.32,14,5,23,0.15
2014-1-12,38.3,34.7,32.9,30.2,27.0,24.4,83,73,61,29.96,29.67,18,5,28,0.00
2014-1-13,49.6,44.8,37.4,44.3,34.1,26.4,98,68,48,29.83,29.66,18,7,27,0.05
2014-1-14,45.0,39.3,34.0,44.2,29.4,21.7,97,69,46,29.81,29.67,10,2,15,0.00
2014-1-15,36.0,28.2,25.0,30.4,13.8,5.2,80,54,42,29.99,29.76,15,3,22,0.00
2014-1-16,29.1,25.2,19.6,22.7,13.1,6.2,81,60,41,29.96,29.71,17,5,28,0.00
2014-1-17,39.7,29.6,14.4,32.9,21.3,1.2,97,71,56,29.93,29.69,13,4,30,0.00
2014-1-18,22.5,15.9,10.4,12.0,3.5,-1.6,77,58,46,29.96,29.79,11,3,20,0.00
2014-1-19,34.2,25.4,18.0,19.4,15.5,12.0,82,67,52,29.79,29.59,15,4,33,0.00
2014-1-20,35.8,27.3,16.9,29.1,18.1,8.5,93,69,55,29.96,29.54,15,2,23,0.00
2014-1-21,17.1,11.5,5.5,10.2,-2.9,-14.1,74,53,33,30.10,29.91,12,3,19,0.00
2014-1-22,14.4,8.2,4.1,-1.2,-7.1,-12.4,64,49,35,30.09,29.95,8,1,13,0.00
2014-1-23,12.4,9.3,5.2,5.7,1.1,-2.9,77,69,63,30.41,29.93,6,1,11,0.00
2014-1-24,18.0,8.3,-1.3,-2.8,-9.0,-11.6,70,47,30,30.42,29.66,20,4,32,0.00
2014-1-25,28.8,18.3,10.9,26.2,12.5,-6.4,93,79,33,29.73,29.28,18,5,30,0.00
2014-1-26,31.8,17.4,5.7,23.2,7.5,-5.1,85,65,52,29.76,29.40,14,4,24,0.00
2014-1-27,35.6,13.6,0.1,25.7,-0.8,-12.0,85,53,29,30.26,29.34,15,4,27,0.00
2014-1-28,9.5,0.8,-7.8,-10.7,-19.2,-27.8,59,40,22,30.37,30.20,10,2,16,0.00
2014-1-29,17.2,9.2,-0.8,-5.3,-13.2,-24.3,49,35,25,30.23,30.13,11,3,21,0.00
2014-1-30,30.9,19.4,9.1,0.9,-6.5,-10.0,46,32,21,30.22,29.81,24,6,36,0.00
2014-1-31,38.5,32.7,30.6,26.4,15.2,0.6,83,51,27,30.15,29.90,10,2,12,0.00